Погода в Ташанте

Россия / Республика Алтай     49°42′59″N   89°11′37″E
темп.,
°C
ветер,
м/с
пор.,
м/с
влажн.,
%
обл.,
%
осадки,
мм/ч
давл.,
гПа
погр.,
м
14 мая, пт
пт1401:000вюв1174100 0.0 101510
04:00−1юв11725 0.0 101412
07:00+1юв126312 0.0 1014221
10:00+4зюз125169 0.0 10131316
13:00+6сз534776 0.4 10131570
16:00+7ссз433942 0.3 10121825
19:00+6с44395 0.3 10141423
22:00+3сз22526 0.0 101849
15 мая, сб
сб1501:00+1сз22625 0.0 102133
04:000сз22845 0.0 102325
07:000сз228599 0.0 1024429
10:00+3сз226950 0.0 1023733
13:00+7сз33495 0.0 10211226
16:00+9сз33365 0.0 10201686
19:00+8сз44375 0.0 10201377
22:00+5сз12481 0.0 102280
16 мая, вс
вс1601:00+4сз11525 0.0 102210
04:00+2вюв11553 0.0 102110
07:00+4в00485 0.0 102180
10:00+7зсз11415 0.0 1020805
13:00+11сз33305 0.0 10171782
16:00+12сз55255 0.0 10152049
19:00+12с55283 0.0 10142051
22:00+8ссз225635 0.0 101792
17 мая, пн
пн1701:00+6сз11725 0.0 101723
04:00+4зюз117657 0.0 101710
07:00+6сз117038 0.0 1017151
10:00+9сз465183 0.0 10161159
13:00+12зсз573795 0.0 10132071
16:00+12сз784096 0.1 10121877
19:00+11сз794171 0.1 10121914
22:00+6зсз357580 0.3 1017480
18 мая, вт
вт1801:00+6зсз457994 0.4 1017495
04:00+5зсз358340 0.1 1017414
07:00+5сз128129 0.1 1017277
10:00+8сз455611 0.0 10141180
13:00+12сз574068 0.0 10122002
16:00+14сз792931 0.0 10092660
19:00+12ссз773844 0.0 10091663
22:00+8сз12605 0.0 1011185